Theta_e
296 296 296 296 297 297 297 298 299 299 300 301 301 301 301 303 305 305 309 312 314 318 318 314 314 316 316 317 317 320 322 322 323 325 327 329 329 329 330 332 335 336 340 339 338
296 296 296 296 296 296 296 297 298 299 301 301 301 302 302 303 304 307 309 308 310 309 308 316 318 318 317 317 318 319 322 321 323 325 326 326 329 329 330 331 336 341 339 340 337
296 296 296 296 295 295 295 295 296 297 298 299 301 302 302 302 311 320 314 310 310 309 308 317 319 319 318 317 318 319 321 322 323 323 324 325 327 328 330 331 335 341 343 341 338
297 296 296 295 295 295 295 295 296 297 297 298 299 301 302 303 314 315 311 309 313 313 317 318 317 319 317 317 317 318 320 321 322 322 323 324 325 326 327 329 332 338 343 342 339
295 295 295 295 295 295 295 296 297 298 300 300 300 300 302 312 311 310 308 309 308 312 315 318 318 319 319 317 317 318 319 320 321 322 322 323 323 324 325 326 328 334 343 343 340
295 295 295 294 294 295 296 297 298 299 300 301 301 299 309 311 309 309 309 309 308 309 312 316 319 317 319 319 318 318 319 320 321 321 322 322 322 322 324 325 326 330 337 344 341
294 295 294 294 294 295 297 298 300 300 301 301 300 299 308 310 309 307 306 307 307 308 309 313 316 319 319 320 319 318 318 320 321 320 321 321 322 322 322 323 325 326 330 342 342
294 294 294 294 294 296 298 301 301 301 301 302 305 307 311 309 307 308 307 307 310 310 307 308 312 316 319 319 319 320 320 320 320 321 321 321 321 322 322 322 323 325 327 329 342
294 294 294 294 295 297 301 303 303 304 305 307 310 311 311 308 307 306 306 306 307 308 312 307 308 312 316 319 319 318 321 321 320 321 321 321 321 322 322 322 322 323 326 327 331
294 294 294 294 296 299 303 305 306 307 306 309 310 308 309 306 306 306 306 306 309 310 311 314 309 312 317 318 319 317 318 320 322 321 321 321 321 322 322 322 322 323 325 327 330
294 295 294 294 296 302 303 306 307 310 306 306 306 306 307 307 308 308 307 306 306 308 313 315 312 312 315 318 318 318 318 318 321 322 323 324 321 322 322 322 323 323 324 325 327
294 295 294 294 297 304 304 304 304 304 307 307 306 306 307 308 309 309 308 308 307 310 310 313 316 312 312 316 317 317 318 319 320 321 322 323 323 323 322 322 322 323 323 324 325
295 295 294 296 300 304 304 302 303 304 308 308 306 308 307 309 309 309 308 307 308 307 310 311 312 315 313 313 316 318 319 319 319 319 320 321 321 323 323 322 322 322 323 324 324
295 295 294 297 303 304 304 302 303 305 314 307 307 309 308 308 309 309 309 309 308 307 308 310 311 313 315 314 315 318 318 318 318 318 319 321 321 322 322 322 322 322 322 323 324
294 295 295 299 302 306 304 303 304 308 320 306 307 307 307 308 310 310 309 309 311 308 307 310 311 312 315 314 314 315 317 318 318 318 320 320 322 321 323 322 322 323 322 322 323
294 295 295 303 305 305 303 303 308 318 309 306 307 307 308 307 309 309 308 309 310 311 308 307 308 312 313 315 315 314 316 317 319 320 320 320 321 323 321 323 324 324 322 322 321
294 295 296 302 305 302 304 308 315 315 307 306 306 306 305 306 308 309 308 309 312 312 312 310 308 309 312 314 317 314 315 317 319 320 321 319 320 322 322 323 324 325 323 323 322
297 298 299 303 299 301 307 312 315 306 307 306 307 307 306 307 308 308 307 308 310 309 311 311 311 308 311 314 318 315 315 317 320 321 320 319 319 319 321 321 321 321 321 322 322
302 304 304 300 297 305 309 312 311 307 306 306 307 306 306 307 308 307 307 309 309 310 311 312 312 312 313 311 315 315 316 316 317 320 321 320 319 320 319 319 321 321 321 321 321
302 304 305 297 302 306 310 308 307 305 305 306 307 307 308 308 308 308 308 310 311 311 309 310 311 310 312 312 311 310 311 317 318 317 319 318 319 320 321 320 319 320 321 321 321
303 306 304 299 304 307 309 308 306 305 304 306 306 306 306 307 308 308 309 309 310 310 309 311 311 310 311 312 313 314 310 311 313 316 319 318 318 319 321 322 321 321 319 320 319
303 305 303 302 306 304 305 306 304 305 303 303 305 306 306 307 307 307 307 309 309 309 309 311 310 311 310 310 311 312 314 313 318 315 316 319 320 319 320 320 320 321 320 321 321
304 304 302 303 305 304 305 305 303 303 303 304 304 304 305 305 305 305 305 307 307 308 308 309 310 310 308 310 312 312 312 312 315 316 318 322 319 319 320 320 320 318 319 319 320
303 302 303 302 301 303 305 304 303 302 302 302 303 303 304 305 305 303 304 304 303 304 305 306 308 309 310 310 311 312 313 313 313 317 317 317 316 318 319 319 318 319 317 317 317
301 302 304 305 301 303 304 303 303 303 302 302 303 303 303 303 303 303 303 302 302 302 304 307 310 310 310 310 311 310 311 312 312 313 315 314 315 315 316 317 316 316 316 316 316
299 304 302 303 304 304 303 303 304 303 302 303 303 303 302 302 302 302 302 302 302 302 303 304 306 307 308 308 309 310 310 310 310 310 310 311 312 313 313 313 314 314 315 315 316
302 301 301 304 304 305 306 305 304 302 301 301 301 301 302 302 301 300 300 300 301 301 302 302 303 304 306 305 307 309 309 309 309 310 311 311 312 312 312 313 313 313 313 313 314
Wind_Speed
10 10 10 9 8 7 7 8 11 13 15 16 16 15 15 16 16 14 10 12 17 19 17 18 17 17 16 21 19 21 11 14 20 21 23 7 7 11 12 18 14 10 11 32 34
9 9 10 11 13 13 12 11 9 10 12 13 15 15 15 17 16 14 15 16 18 20 19 15 16 15 19 20 16 18 12 22 21 22 17 24 12 13 12 19 13 16 28 37 36
9 10 11 11 12 13 15 15 16 14 12 14 14 12 13 15 12 2 7 11 12 13 13 14 18 16 21 22 23 23 19 20 27 31 20 20 11 13 10 16 14 21 30 30 35
10 10 11 12 12 14 14 16 17 17 17 15 15 14 9 7 3 7 16 17 7 5 13 13 14 18 16 19 22 23 28 28 29 32 29 17 19 15 13 17 17 25 35 33 32
12 12 12 12 12 13 14 15 15 15 15 15 13 13 5 3 5 8 12 12 12 11 10 12 13 17 20 18 23 23 22 30 30 31 26 20 18 20 19 20 25 4 35 36 36
11 12 12 13 13 15 16 15 14 13 13 13 14 11 7 5 3 8 14 16 13 11 14 13 13 16 20 23 23 28 28 29 30 28 25 22 20 22 24 20 21 12 18 31 33
12 12 12 11 13 15 16 16 16 12 11 11 11 8 5 12 15 15 16 16 16 14 16 14 14 15 14 17 23 30 24 24 22 24 24 27 23 23 26 25 27 21 21 27 32
12 12 12 14 17 19 18 17 14 11 13 11 9 6 6 6 11 15 16 18 12 16 19 18 17 18 18 19 25 20 21 22 24 21 23 24 25 22 30 30 31 28 26 27 30
14 14 14 14 16 17 15 12 12 8 21 9 12 5 3 10 16 21 17 20 20 17 17 18 19 23 19 15 15 17 19 25 27 25 22 24 26 21 32 31 32 34 29 27 31
14 13 12 13 15 18 13 10 9 7 16 7 5 6 5 17 22 22 18 18 17 18 17 19 16 18 17 16 18 22 24 26 26 22 24 26 26 21 30 31 30 34 30 32 32
13 11 10 12 15 19 24 11 7 3 9 5 6 6 11 15 15 18 18 16 16 18 17 21 17 20 25 24 27 22 23 28 26 24 24 23 26 25 27 28 29 30 36 36 31
12 10 9 10 13 18 20 12 10 5 6 1 2 4 9 10 17 16 20 15 18 18 19 19 22 26 25 27 28 28 28 27 24 25 21 23 25 24 21 20 29 28 33 40 37
11 9 8 8 12 13 10 12 7 7 6 1 1 2 10 12 19 15 20 19 19 22 21 22 24 25 28 27 30 28 28 23 24 23 26 21 17 25 18 21 32 35 36 28 31
10 9 8 6 9 12 5 11 8 4 4 4 1 3 12 14 8 21 16 14 15 21 22 23 25 26 27 31 28 27 27 26 25 18 17 23 15 19 18 16 18 26 30 31 27
9 9 9 13 5 9 11 10 7 3 2 6 4 6 16 20 9 16 18 18 19 19 18 23 23 26 27 30 28 28 25 26 26 21 18 22 14 18 23 21 22 24 27 23 22
9 9 6 8 6 9 9 5 4 2 4 6 5 13 13 21 10 8 16 12 16 22 19 24 35 24 18 28 27 28 26 28 25 15 16 22 18 19 18 20 19 20 31 28 32
10 9 7 8 5 8 5 6 1 4 7 6 12 14 15 17 13 13 19 14 6 7 15 20 23 25 23 24 26 22 20 14 19 15 16 20 19 17 14 20 20 19 22 31 43
9 6 9 4 7 4 7 1 5 3 6 13 12 17 12 11 13 17 18 13 7 11 16 17 15 18 16 16 20 19 21 16 20 16 18 23 23 21 19 29 35 31 26 18 11
10 8 4 10 6 8 6 4 3 5 9 11 15 9 9 14 18 18 18 7 11 14 13 15 17 29 22 17 18 15 20 20 22 19 15 14 19 26 24 23 21 24 25 26 17
7 0 5 7 5 6 2 2 1 4 7 8 8 5 16 18 17 15 15 9 11 12 15 13 17 16 22 33 15 26 19 14 11 22 23 20 20 13 21 25 23 20 14 24 15
7 2 7 5 7 2 3 3 4 4 8 6 10 13 14 16 15 16 16 4 13 13 8 12 8 17 18 16 13 13 15 19 16 11 14 18 17 18 18 12 9 13 27 13 22
0 2 6 8 3 3 0 5 6 5 6 9 8 11 11 12 14 16 18 11 13 17 12 6 6 11 22 24 21 16 14 11 7 19 15 13 14 19 21 18 11 9 7 7 7
2 1 4 5 1 1 6 6 7 9 8 3 6 10 11 13 10 10 18 20 18 15 11 10 5 11 15 10 18 7 18 15 9 15 18 14 11 16 19 17 20 18 24 26 22
3 0 1 3 2 2 4 5 3 1 8 7 8 12 11 13 10 10 19 13 24 20 17 10 11 13 13 17 2 11 27 20 18 4 6 10 20 24 22 15 21 24 24 21 26
3 3 1 2 3 6 4 5 7 6 4 7 4 7 11 9 15 16 15 23 22 22 16 6 9 14 19 21 20 17 16 21 18 18 14 13 16 21 21 18 17 26 23 22 23
5 4 4 5 6 7 4 3 7 7 4 6 11 14 13 13 14 20 21 17 12 16 12 11 11 15 20 20 22 20 19 19 20 22 21 20 18 18 24 31 22 24 24 25 25
4 2 2 4 4 6 7 7 6 6 6 9 9 11 14 17 21 23 26 29 26 21 20 18 13 13 20 18 21 17 14 16 19 21 20 17 20 19 18 19 24 25 25 26 25
Wind_Direction
14 10 7 6 2 353 331 312 309 311 315 317 318 325 324 311 305 300 294 259 253 267 281 293 297 286 280 273 266 273 265 257 257 259 270 133 184 181 244 254 153 162 127 157 156
16 13 13 12 14 9 1 355 342 322 315 312 317 327 327 325 321 312 281 272 263 269 274 295 293 293 272 258 264 243 247 252 258 268 283 323 202 210 198 243 175 107 121 147 153
12 8 9 8 8 3 359 354 348 345 339 329 324 325 329 337 345 54 328 318 294 282 278 292 279 278 271 264 255 250 246 257 268 272 326 306 298 228 208 221 188 138 141 154 161
8 3 2 -0 360 359 355 351 347 347 349 351 347 342 341 344 350 331 318 316 337 350 328 301 275 264 260 257 256 262 257 254 264 272 285 293 291 283 227 254 236 179 164 166 175
355 353 352 354 0 360 356 350 345 341 342 344 355 357 42 309 308 351 334 335 319 316 305 300 292 272 262 263 249 254 261 255 261 266 279 278 282 280 283 237 257 252 170 174 180
355 355 359 5 8 2 355 349 343 335 333 332 338 357 5 265 344 328 316 314 315 295 287 286 281 278 296 285 264 258 260 258 257 256 260 253 260 265 268 270 268 235 199 177 187
358 357 1 4 2 359 355 347 340 337 337 338 336 344 296 263 322 325 329 317 302 287 278 274 283 298 284 301 269 266 268 268 255 254 247 260 249 241 249 255 264 248 218 193 193
-0 0 5 5 3 0 354 350 347 2 18 8 23 60 287 318 28 355 336 328 311 291 271 267 270 281 280 272 285 286 253 250 244 237 245 250 250 240 239 240 249 245 234 223 202
0 5 8 6 4 359 359 359 359 40 14 42 30 11 0 345 336 321 317 314 310 296 277 262 253 252 266 265 258 255 251 238 245 240 238 234 245 245 255 234 231 244 232 225 229
358 6 7 6 8 6 9 26 17 37 359 2 339 283 18 336 329 324 325 302 299 295 283 250 241 239 238 239 232 235 240 243 254 229 238 241 240 233 237 248 248 225 240 226 219
1 6 8 8 14 22 27 19 7 100 25 11 335 313 326 336 341 342 342 322 288 281 265 253 230 234 229 231 245 257 257 253 250 244 256 242 234 236 219 238 253 233 221 239 228
1 8 8 13 23 47 34 51 27 345 322 355 326 303 331 336 340 351 340 324 302 279 266 249 248 238 245 248 244 238 254 262 272 272 266 240 259 248 225 222 241 251 236 216 230
5 11 13 19 33 29 25 29 359 334 275 302 216 352 343 335 324 321 350 338 308 280 273 263 257 244 241 245 248 249 243 248 260 278 282 272 258 254 221 230 246 240 252 221 227
10 14 15 7 21 2 18 349 340 343 248 85 10 64 338 311 315 360 343 321 314 291 276 271 271 255 255 241 241 249 246 249 254 256 263 267 246 245 250 255 259 258 244 245 221
8 14 22 25 46 5 329 326 332 330 101 359 4 317 328 325 350 5 341 314 306 299 281 273 266 263 256 252 247 246 257 257 244 245 264 272 271 221 235 229 242 252 249 243 245
3 6 24 21 13 320 333 10 351 258 43 339 333 339 331 328 341 339 340 338 335 299 280 262 272 278 302 292 252 259 246 245 259 239 239 246 257 259 223 232 237 230 237 240 246
2 17 49 63 322 323 49 332 288 51 310 7 340 333 321 307 326 344 339 346 37 336 299 288 258 261 254 271 278 246 251 252 230 227 238 232 249 251 254 256 258 267 304 230 226
21 45 33 358 326 26 9 290 65 292 348 344 330 307 287 297 328 347 334 332 45 344 315 308 306 244 251 259 277 247 240 244 250 231 230 227 238 243 266 263 274 283 290 307 317
48 34 21 309 3 66 314 56 149 341 357 332 323 334 351 334 346 330 318 345 352 12 342 315 315 319 299 275 209 272 271 254 260 268 269 255 231 221 235 252 265 262 264 276 282
85 243 305 350 87 33 23 56 281 337 336 331 315 317 330 329 325 330 323 32 350 355 339 334 310 307 311 329 268 230 261 246 263 249 252 253 258 274 207 227 241 258 252 245 245
82 245 306 26 47 17 105 247 300 352 325 333 329 316 314 319 328 323 312 24 10 340 315 347 318 310 315 297 288 300 229 257 274 266 263 250 245 263 277 208 231 250 246 258 237
45 50 300 57 56 23 134 337 330 293 316 289 278 282 299 330 313 305 294 328 13 344 353 16 304 303 308 294 283 285 272 272 291 270 246 225 265 284 290 288 288 177 189 174 177
154 165 338 47 101 18 293 284 290 293 299 308 300 303 307 306 305 307 304 314 351 348 6 340 293 317 311 318 8 9 329 339 275 294 279 282 262 246 262 276 331 11 4 356 2
154 109 18 68 133 285 313 304 297 232 294 287 283 300 290 288 315 289 308 307 319 318 316 303 271 262 271 293 228 305 314 313 307 218 286 282 302 298 306 341 328 328 345 332 329
135 217 190 177 249 238 284 294 300 295 233 297 292 301 310 310 302 293 301 311 305 301 291 267 274 281 285 295 301 295 271 283 293 293 292 279 259 275 284 296 298 303 310 308 297
153 178 214 273 254 206 185 260 286 289 278 280 289 296 298 296 297 299 302 305 295 304 286 308 294 295 293 294 289 291 291 289 288 292 287 285 280 295 290 293 294 297 290 287 288
167 224 267 253 230 215 222 233 258 314 298 274 289 295 293 298 306 299 291 285 274 280 280 282 278 283 279 295 299 284 282 276 264 272 280 285 294 291 285 288 286 286 295 296 289